This is the latest recevied weather packets stored in our database for station/object K5OLV. If no packets are shown the sender has not sent any weather packets the latest 1 day(s).
| Time | Temp. | Humidity | Pressure | Rain* | Wind** | Luminosity | Snow |
|---|---|---|---|---|---|---|---|
| 1778026745 | 20° C | 64% | 1009.4 hPa | 0 mm | 0.89 m/s, 52° | 1 W/m² | - |
| 1778026443 | 20° C | 63% | 1009.4 hPa | 0 mm | 1.34 m/s, 161° | 4 W/m² | - |
| 1778026140 | 20° C | 62% | 1009.4 hPa | 0 mm | 1.34 m/s, 200° | 6 W/m² | - |
| 1778025838 | 20° C | 62% | 1009.4 hPa | 0 mm | 0.89 m/s, 216° | 10 W/m² | - |
| 1778025534 | 20° C | 61% | 1009.5 hPa | 0 mm | 1.34 m/s, 248° | 13 W/m² | - |
| 1778025232 | 20° C | 61% | 1009.6 hPa | 0 mm | 0.45 m/s, 171° | 11 W/m² | - |
| 1778024928 | 20° C | 60% | 1009.4 hPa | 0 mm | 1.34 m/s, 74° | 8 W/m² | - |
| 1778024626 | 20° C | 60% | 1009.5 hPa | 0 mm | 0.45 m/s, 290° | 16 W/m² | - |
| 1778024323 | 20° C | 60% | 1009.4 hPa | 0 mm | 0.89 m/s, 158° | 18 W/m² | - |
| 1778024021 | 20° C | 59% | 1009.4 hPa | 0 mm | 0.89 m/s, 226° | 27 W/m² | - |
| 1778023718 | 20° C | 59% | 1009.5 hPa | 0 mm | 0.89 m/s, 112° | 39 W/m² | - |
| 1778023416 | 20° C | 59% | 1009.5 hPa | 0 mm | 0.45 m/s, 75° | 31 W/m² | - |
| 1778023112 | 20° C | 58% | 1009.6 hPa | 0 mm | 0.45 m/s, 119° | 36 W/m² | - |
| 1778022810 | 20° C | 57% | 1009.8 hPa | 0 mm | 1.34 m/s, 130° | 33 W/m² | - |
| 1778022508 | 20° C | 57% | 1009.7 hPa | 0 mm | 0.89 m/s, 179° | 43 W/m² | - |
| 1778022205 | 20° C | 56% | 1010 hPa | 0 mm | 0.89 m/s, 141° | 58 W/m² | - |
| 1778021901 | 20.56° C | 57% | 1009.8 hPa | 0 mm | 0.89 m/s, 104° | 60 W/m² | - |
| 1778021599 | 20.56° C | 56% | 1009.7 hPa | 0 mm | 0.89 m/s, 161° | 56 W/m² | - |
| 1778021293 | 20.56° C | 56% | 1009.3 hPa | 0 mm | 0.89 m/s, 97° | 75 W/m² | - |
| 1778020992 | 21.11° C | 55% | 1009.7 hPa | 0 mm | 0.89 m/s, 84° | 91 W/m² | - |
| 1778020688 | 20.56° C | 55% | 1009.8 hPa | 0 mm | 0.45 m/s, 296° | 104 W/m² | - |
| 1778020386 | 21.11° C | 54% | 1009.7 hPa | 0 mm | 0 m/s | 108 W/m² | - |
| 1778020081 | 21.11° C | 52% | 1009.6 hPa | 0 mm | 1.79 m/s, 122° | 131 W/m² | - |
| 1778019777 | 21.11° C | 52% | 1009.6 hPa | 0 mm | 1.34 m/s, 95° | 144 W/m² | - |
| 1778019475 | 20.56° C | 52% | 1009.6 hPa | 0 mm | 1.34 m/s, 141° | 204 W/m² | - |
* Rain latest hour (hover to see other rain measurements)
** Current wind speed in m/s (hover to see current wind gust speed)